CAPE
0 0 0 0 0 0 0 0 0 1 11 27 32 33 47 52 49 55 56 62 68 99 86 62 62 45 49
0 1 1 3 2 3 2 0 0 0 7 5 15 26 24 31 31 28 37 46 44 72 94 47 40 51 57
3 5 8 3 2 1 3 0 3 1 0 3 18 6 12 20 17 14 10 10 17 59 49 57 59 66 93
3 1 4 1 3 2 1 2 5 3 11 9 8 0 1 6 2 5 12 21 34 64 63 57 65 86 105
2 0 1 4 2 2 5 13 5 9 11 2 1 0 0 2 0 1 8 24 38 50 48 41 65 70 77
1 3 4 4 3 8 18 12 9 0 9 0 0 0 2 6 0 0 1 22 33 27 27 25 18 14 55
6 7 4 1 10 13 11 11 3 0 5 1 0 1 1 0 0 3 17 23 10 6 15 17 15 10 5
7 6 3 7 11 11 11 5 1 0 2 4 1 0 0 0 0 0 3 6 8 6 5 7 6 9 8
0 0 1 1 7 7 5 3 3 0 0 9 1 1 0 0 0 0 0 0 0 5 7 9 5 6 16
0 0 0 0 3 5 4 4 5 5 0 8 3 4 2 0 0 0 0 0 0 0 0 3 5 11 18
1 2 1 1 3 3 4 6 6 6 0 11 6 5 5 6 0 0 0 0 0 0 0 0 4 24 33
2 1 1 2 2 3 2 3 3 3 2 3 7 5 6 6 2 0 0 0 0 1 4 1 1 0 1
2 3 4 4 3 3 1 1 0 0 0 0 5 5 7 5 5 1 10 0 0 5 6 7 6 5 4
2 2 3 2 2 2 4 3 1 0 0 0 0 2 5 6 5 4 4 14 14 8 5 4 9 12 9
2 2 1 1 1 3 3 2 3 2 2 0 0 0 0 2 2 6 10 6 5 10 8 11 8 2 7
2 2 2 2 3 3 2 2 2 1 3 4 3 3 1 0 1 17 6 3 6 9 8 9 7 4 0
1 1 3 1 4 2 2 3 2 6 1 0 2 5 4 4 0 6 12 4 5 6 9 12 12 5 2
CIN
-0 -0 -0 -0 -0 -0 -0 -0 -0 -0 -0 -0 -0 -0 -0 -0 -0 -0 -0 -0 -0 -0 -0 -0 -0 -0 -0
-0 -0 -0 -0 -0 -0 -0 -0 -0 -0 -0 -0 -0 -0 -0 -0 -0 -0 -0 -0 -0 -0 -0 -0 -0 -0 -0
-0 -0 -0 -0 -0 -0 -0 -0 -0 -0 -0 -0 -0 -0 -0 -0 -0 -0 -0 -0 -0 -0 -0 -0 -0 -0 -0
-0 -0 -0 -0 -0 -0 -0 -0 -0 -0 -0 -0 -0 -0 -0 -0 -0 -0 -0 -0 -0 -0 -0 -0 -0 -0 -0
-0 -0 -0 -0 -0 -0 -0 -0 -0 -0 -0 -0 -0 -0 -0 -0 -0 -0 -0 -0 -0 -0 -0 -0 -0 -0 -0
-0 -0 -0 -0 -0 -0 -0 -0 -0 -0 -0 -0 -0 -0 -0 -0 -0 -0 -0 -0 -0 -0 -0 -0 -0 -0 -0
-0 -0 -0 -0 -0 -0 -0 -0 -0 -0 -0 -0 -0 -0 -0 -0 -0 -0 -0 -0 -0 -0 -0 -0 -0 -0 -0
-0 -0 -0 -0 -0 -0 -0 -0 -0 -0 -0 -0 -0 -0 -0 -0 -0 -0 -0 -0 -0 -0 -0 -0 -0 -0 -0
-0 -0 -0 -0 -0 -0 -0 -0 -0 -0 -0 -0 -0 -0 -0 -0 -0 -0 -0 -0 -0 -0 -0 -0 -0 -0 -0
-0 -0 -0 -0 -0 -0 -0 -0 -0 -0 -0 -0 -0 -0 -0 -0 -0 -0 -0 -0 -0 -0 -0 -0 -0 -0 -0
-0 -0 -0 -0 -0 -0 -0 -0 -0 -0 -0 -0 -0 -0 -0 -0 -0 -0 -0 -0 -0 -0 -0 -0 -0 -0 -0
-0 -0 -0 -0 -0 -0 -0 -0 -0 -0 -0 -0 -0 -0 -0 -0 -0 -0 -0 -0 -0 -0 -0 -0 -0 -0 -1
-0 -0 -0 -0 -0 -0 -0 -0 -0 -0 -0 -0 -0 -0 -0 -0 -0 -0 -0 -0 -0 -0 -0 -0 -0 -0 -0
-0 -0 -0 -0 -0 -0 -0 -0 -0 -0 -0 -0 -0 -0 -0 -0 -0 -0 -0 -0 -0 -0 -0 -0 -0 -0 -0
-0 -0 -0 -0 -0 -0 -0 -0 -0 -0 -0 -0 -0 -0 -0 -0 -0 -0 -0 -0 -0 -0 -0 -0 -0 -0 -0
-0 -0 -0 -0 -0 -0 -0 -0 -0 -0 -0 -0 -0 -0 -0 -0 -0 -0 -0 -0 -0 -0 -0 -0 -0 -0 -0
-0 -0 -0 -0 -0 -0 -0 -0 -0 -0 -0 -0 -0 -0 -0 -0 -0 -0 -0 -0 -0 -0 -0 -0 -0 -0 -0
Wind_Speed
5 8 10 11 11 10 10 11 11 18 19 22 21 21 21 22 22 23 23 24 21 19 16 13 13 15 15
8 9 10 10 12 12 10 10 11 14 20 20 20 22 23 22 22 23 22 22 22 19 17 14 15 15 17
8 8 7 9 11 11 10 12 10 17 21 19 18 23 22 21 21 22 20 20 20 18 14 15 15 16 18
8 8 8 9 9 11 11 10 11 11 13 14 22 21 19 19 18 19 19 19 18 17 15 15 14 14 14
7 8 8 10 12 10 11 11 12 7 8 11 11 11 10 12 13 21 22 19 17 15 14 12 12 12 14
7 9 10 11 9 10 10 11 9 7 12 11 10 10 9 8 19 22 20 17 15 14 13 12 13 14 16
8 9 11 12 10 11 11 11 11 11 11 10 9 9 9 11 19 17 15 13 16 17 16 15 14 13 14
7 9 10 10 9 10 10 11 10 9 8 7 10 10 11 9 13 12 17 19 18 17 15 15 15 15 12
12 14 14 13 11 6 7 9 9 10 7 7 7 12 9 7 6 14 16 14 15 16 17 15 14 15 8
9 9 9 8 10 6 6 7 8 6 3 8 8 6 7 4 8 7 8 13 17 15 14 13 12 7 6
6 5 5 6 6 7 7 6 8 8 10 6 6 7 4 8 8 8 7 10 9 8 11 11 12 10 5
5 5 7 8 8 9 10 9 8 11 12 9 5 7 7 8 7 7 10 8 5 6 5 7 10 9 9
6 7 7 8 10 9 9 10 10 10 7 9 7 9 7 7 7 8 10 6 6 7 7 6 5 4 4
6 7 8 8 7 7 8 9 8 6 7 7 8 7 7 6 7 7 6 5 8 7 7 4 3 3 3
6 7 7 7 7 7 6 7 5 7 8 8 8 8 7 8 4 4 5 6 7 7 7 5 3 4 4
5 5 6 7 8 8 6 6 7 7 8 8 7 8 5 2 7 4 5 7 7 7 6 6 4 5 5
4 5 6 6 9 8 7 7 7 7 8 6 5 6 8 8 3 3 6 7 7 6 5 5 5 6 6
Wind_Direction
295 316 320 325 321 316 316 320 320 325 322 327 329 330 324 319 319 321 324 321 318 315 323 326 329 327 314
328 330 324 321 318 321 332 331 324 318 325 328 330 330 326 320 322 318 317 318 318 313 309 321 321 319 319
327 318 298 330 333 338 337 326 317 318 323 324 327 327 325 328 327 327 322 313 310 309 305 316 317 315 317
317 324 336 338 340 334 329 331 324 316 319 313 320 317 320 325 334 334 324 314 308 308 310 313 315 317 316
329 334 338 342 340 332 324 322 323 322 326 316 316 317 320 325 326 335 330 320 311 317 315 316 321 319 319
334 336 331 329 325 326 320 324 326 326 327 316 317 317 322 320 319 321 320 328 339 335 329 332 335 330 333
324 324 320 319 314 313 318 316 310 317 322 313 321 322 323 314 321 324 323 342 341 332 329 326 323 324 328
320 312 304 306 311 309 315 312 310 317 331 297 325 321 321 316 321 331 337 327 320 320 317 314 306 306 318
319 317 319 323 321 328 328 327 324 325 329 313 325 318 313 307 314 323 330 330 329 324 320 316 312 306 297
329 331 334 329 348 347 330 321 321 314 342 329 322 345 312 304 316 321 322 322 326 322 323 324 323 306 292
331 329 332 345 343 331 316 299 301 289 297 320 300 314 282 305 311 320 320 323 325 325 325 320 320 314 294
333 331 339 339 331 322 317 307 287 278 291 289 270 289 290 296 296 322 327 325 326 324 329 320 321 333 320
336 337 331 322 317 320 318 311 302 290 281 284 273 288 284 273 288 309 324 328 326 329 330 331 323 332 340
335 332 327 330 330 332 326 329 320 319 317 301 298 292 298 285 288 297 315 318 336 344 331 323 344 342 324
337 338 332 331 330 330 331 329 319 322 327 327 331 301 280 266 295 319 338 336 338 338 340 332 14 351 337
327 327 324 330 329 332 327 322 317 320 326 333 331 337 336 279 220 313 336 334 332 333 340 326 328 343 338
313 323 315 316 333 324 325 324 320 326 329 334 329 339 329 327 306 251 332 331 327 331 337 340 325 329 330